Location: Misciano
(43.5000°N, 11.9500°E)
Time: 05:40:35
(UTC+00:00)

Resurs 01 Rocket - Pass Details

Date: 13 August 2020
Orbit: 635 x 644 km, 98.0° (Epoch: 19 September)

Event Time Altitude Azimuth Distance (km) Brightness Sun altitude
Exits shadow 19:47:46 17° 169° (SSE) 1,627 3.3 -15.0°
Maximum altitude 19:51:12 84° 255° (WSW) 649 1.6 -15.5°
Drops below altitude 10° 19:55:40 10° 346° (NNW) 2,043 5.0 -16.2°
Sets 19:57:54 0° 347° (NNW) 2,958 5.9 -16.5°
